Willimantic, CT

5:35 AM EDT on June 24, 2017 (GMT -0400)
Windham

Weather History for KIJD - May, 2013

Change the Weather History Date:

Monday, May 27, 2013

  Actual Average Record
Temperature  
Mean Temperature 54 °F -  
Max Temperature 73 °F 70 °F 91 °F (1965)
Min Temperature 36 °F 44 °F 30 °F (1969)
Degree Days  
Heating Degree Days 11    
Growing Degree Days 4 (Base 50)    
Moisture  
Dew Point 37 °F    
Average Humidity 69    
Maximum Humidity 100    
Minimum Humidity 24    
Precipitation  
Precipitation 0.00 in - - ()
Sea Level Pressure  
Sea Level Pressure 30.16 in    
Wind  
Wind Speed 2 mph (NW)    
Max Wind Speed 12 mph    
Max Gust Speed 23 mph    
Visibility 8 miles    
Events Fog    
Averages and records for this station are not official NWS values.
T = Trace of Precipitation, MM = Missing Value Source: NWS Daily Summary

Daily Weather History Graph

Daily Weather History Graph

Search for Another Location

Airport or City:

Trip Planner

Search our weather history database for the weather conditions in past years. The results will help you decide how hot, cold, wet, or windy it might be!

Date:

Astronomy

May. 27, 2013 Rise Set
Actual Time 5:19 AM EDT 8:13 PM EDT
Civil Twilight 4:46 AM EDT 8:46 PM EDT
Nautical Twilight 4:04 AM EDT 9:28 PM EDT
Astronomical Twilight 3:15 AM EDT 10:16 PM EDT
Moon 10:49 PM EDT (5/27) 7:53 AM EDT (5/27)
Length of Visible Light 16h 00m
Length of Day
14h 54m
Waning Gibbous, 91% of the Moon is Illuminated
May 27
Waning Gibbous
May 31
Last Quarter
Jun 8
New
Jun 16
First Quarter
Jun 23
Full

Hourly Weather History & Observations

Time (EDT) Temp. Windchill Dew Point Humidity Pressure Visibility Wind Dir Wind Speed Gust Speed Precip Events Conditions
12:52 AM 39.9 °F - 39.0 °F 97% 30.16 in 10.0 mi Calm Calm - N/A   Clear
1:52 AM 39.0 °F - 36.0 °F 89% 30.16 in 10.0 mi Calm Calm - N/A   Clear
2:09 AM 39.2 °F - 37.4 °F 93% 30.15 in 10.0 mi Calm Calm - N/A   Scattered Clouds
2:30 AM 37.4 °F - 35.6 °F 93% 30.15 in 10.0 mi Calm Calm - N/A   Mostly Cloudy
2:46 AM 39.2 °F - 37.4 °F 93% 30.15 in 1.8 mi Calm Calm - N/A   Mostly Cloudy
2:52 AM 39.0 °F - 37.9 °F 96% 30.16 in 0.8 mi Calm Calm - N/A   Mist
3:20 AM 37.4 °F - 37.4 °F 100% 30.16 in 2.0 mi Calm Calm - N/A   Overcast
3:27 AM 37.4 °F - 37.4 °F 100% 30.16 in 10.0 mi Calm Calm - N/A   Overcast
3:52 AM 37.0 °F - 36.0 °F 96% 30.16 in 10.0 mi Calm Calm - N/A   Overcast
4:11 AM 37.4 °F - 35.6 °F 93% 30.16 in 10.0 mi Calm Calm - N/A   Scattered Clouds
4:52 AM 36.0 °F 33.3 °F 35.1 °F 97% 30.17 in 10.0 mi ENE 3.5 mph - N/A   Partly Cloudy
5:49 AM 37.4 °F - 35.6 °F 93% 30.17 in 4.0 mi Calm Calm - N/A   Mostly Cloudy
5:52 AM 37.0 °F - 36.0 °F 96% 30.18 in 1.8 mi Calm Calm - N/A   Mostly Cloudy
6:10 AM 37.4 °F - 37.4 °F 100% 30.18 in 0.2 mi Calm Calm - N/A Fog Fog
6:52 AM 39.9 °F - 39.0 °F 97% 30.19 in 0.2 mi Calm Calm - N/A Fog Fog
7:09 AM 41.0 °F - 39.2 °F 93% 30.18 in 1.5 mi Calm Calm - N/A   Mostly Cloudy
7:13 AM 41.0 °F - 39.2 °F 93% 30.18 in 10.0 mi Calm Calm - N/A   Scattered Clouds
7:52 AM 48.9 °F - 42.1 °F 77% 30.19 in 10.0 mi Calm Calm - N/A   Clear
8:52 AM 59.0 °F - 37.9 °F 46% 30.19 in 10.0 mi West 9.2 mph - N/A   Clear
9:52 AM 61.0 °F - 37.0 °F 41% 30.19 in 10.0 mi West 9.2 mph 17.3 mph N/A   Clear
10:52 AM 64.9 °F - 35.1 °F 33% 30.18 in 10.0 mi West 11.5 mph 20.7 mph N/A   Clear
11:52 AM 66.9 °F - 34.0 °F 30% 30.16 in 10.0 mi West 9.2 mph 23.0 mph N/A   Clear
12:52 PM 68.0 °F - 33.1 °F 27% 30.14 in 10.0 mi NW 9.2 mph 16.1 mph N/A   Clear
1:52 PM 69.1 °F - 33.1 °F 26% 30.13 in 10.0 mi NW 6.9 mph 17.3 mph N/A   Clear
2:52 PM 70.0 °F - 33.1 °F 26% 30.11 in 10.0 mi Variable 4.6 mph 16.1 mph N/A   Clear
3:52 PM 72.0 °F - 35.1 °F 26% 30.10 in 10.0 mi Variable 6.9 mph - N/A   Clear
4:52 PM 72.0 °F - 34.0 °F 25% 30.10 in 10.0 mi West 8.1 mph - N/A   Clear
5:52 PM 72.0 °F - 34.0 °F 25% 30.10 in 10.0 mi WNW 6.9 mph - N/A   Clear
6:52 PM 72.0 °F - 33.1 °F 24% 30.11 in 10.0 mi WNW 8.1 mph - N/A   Clear
7:52 PM 66.0 °F - 39.9 °F 38% 30.12 in 10.0 mi NNW 3.5 mph - N/A   Clear
8:52 PM 60.1 °F - 42.1 °F 51% 30.14 in 10.0 mi Calm Calm - N/A   Clear
9:52 PM 55.9 °F - 44.1 °F 64% 30.16 in 10.0 mi Calm Calm - N/A   Clear
10:52 PM 52.0 °F - 45.0 °F 77% 30.17 in 10.0 mi Calm Calm - N/A   Clear
11:52 PM 48.9 °F - 45.0 °F 86% 30.19 in 10.0 mi NE 3.5 mph - N/A   Clear